"Time","Temp","Dewpoint","Humidity","Pressure","Direction","Speed","Gust","Precip","PrecipRate"
"00:04:59","73.5","71.6","93.7","29.91","233","0","1.2","0.00","0.00"
"00:09:59","73.5","71.5","93.5","29.91","233","0.3","2.4","0.00","0.00"
"00:14:59","73.4","71.3","93","29.91","233","0.2","1.2","0.00","0.00"
"00:19:56","73.4","71.4","93.3","29.90","233","0","1.2","0.00","0.00"
"00:24:59","73.4","71.6","94","29.90","233","0","1.2","0.00","0.00"
"00:29:59","73.3","71.3","93.4","29.90","233","0.1","1.2","0.00","0.00"
"00:34:57","73.3","71.2","93","29.90","233","0","1.2","0.00","0.00"
"00:39:57","73.2","71.4","93.9","29.90","233","0","0","0.00","0.00"
"00:44:56","73.1","71.3","94","29.90","233","0","0","0.00","0.00"
"00:49:59","73","71.2","94","29.90","233","0","0","0.00","0.00"
"00:54:58","72.8","71","94","29.90","233","0.2","1.2","0.00","0.00"
"00:59:57","72.6","70.8","94","29.90","230","1.1","4.8","0.00","0.00"
"01:04:57","72.5","70.7","94","29.89","227","0.3","2.4","0.00","0.00"
"01:09:59","72.4","70.6","94","29.89","227","0.3","2.4","0.00","0.00"
"01:14:59","72.3","70.8","94.9","29.89","226","0.1","2.4","0.00","0.00"
"01:19:58","72.2","70.7","95","29.88","225","0.1","2.3","0.00","0.00"
"01:24:57","72.2","70.7","95","29.88","225","0.4","1.2","0.00","0.00"
"01:29:56","72.2","70.7","95","29.88","225","0.1","3.6","0.00","0.00"
"01:34:59","72.1","70.6","95","29.88","224","1.2","3.6","0.00","0.00"
"01:39:59","72.1","70.6","95","29.88","161","0.9","3.6","0.00","0.00"
"01:44:58","72","70.8","95.8","29.88","157","0.8","3.6","0.00","0.00"
"01:49:58","72","70.8","95.8","29.87","154","1.4","3.6","0.00","0.00"
"01:54:57","71.9","70.7","96","29.87","155","1.1","3.6","0.00","0.00"
"01:59:56","71.9","70.7","96","29.87","155","1.5","3.6","0.00","0.00"
"02:04:59","71.8","70.6","96","29.87","160","2.1","4.8","0.00","0.00"
"02:09:58","71.8","70.6","96","29.87","163","1.5","4.8","0.00","0.00"
"02:14:57","71.8","70.6","96","29.87","163","0.7","3.6","0.00","0.00"
"02:19:57","71.7","70.5","96","29.87","163","0.8","2.4","0.00","0.00"
"02:24:59","71.7","70.5","96","29.87","163","0.7","2.4","0.00","0.00"
"02:29:58","71.7","70.5","96","29.87","163","0.1","1.2","0.00","0.00"
"02:34:57","71.6","70.4","96","29.87","163","0","1.2","0.00","0.00"
"02:39:57","71.6","70.4","96","29.87","163","0.6","2.4","0.00","0.00"
"02:44:56","71.6","70.4","96","29.87","163","0.1","1.2","0.00","0.00"
"02:49:56","71.5","70.3","96","29.86","163","0","1.2","0.00","0.00"
"02:54:59","71.4","70.2","96","29.86","163","0","0","0.00","0.00"
"02:59:58","71.4","70.2","96","29.86","163","0","0","0.00","0.00"
"03:04:59","71.3","70.2","96.5","29.85","163","0.1","1.2","0.00","0.00"
"03:09:58","71.2","70.3","97","29.85","163","0.1","1.2","0.00","0.00"
"03:14:59","71.3","70.4","97","29.85","163","0.4","1.2","0.00","0.00"
"03:19:59","71.5","70.6","97","29.85","163","0.6","3.6","0.00","0.00"
"03:24:58","71.6","70.7","97","29.85","163","0.4","2.4","0.00","0.00"
"03:29:57","71.7","70.8","97","29.85","163","0.6","2.4","0.00","0.00"
"03:34:57","71.8","70.9","97","29.85","167","1.5","3.6","0.00","0.00"
"03:39:57","71.8","70.9","97","29.85","167","0.4","3.6","0.00","0.00"
"03:44:59","71.8","70.9","97","29.85","167","0.8","3.6","0.00","0.00"
"03:49:58","71.8","70.9","97","29.85","167","0.8","3.6","0.00","0.00"
"03:54:56","71.8","70.9","97","29.85","166","0.9","4.8","0.00","0.00"
"03:59:58","71.8","70.9","97","29.85","166","0.9","3.6","0.00","0.00"
"04:04:58","71.8","70.9","97","29.85","166","0.1","2.3","0.00","0.00"
"04:09:56","71.8","70.9","97","29.85","166","0","0","0.00","0.00"
"04:14:58","71.8","71","97.2","29.85","166","0.4","2.4","0.00","0.00"
"04:19:57","71.9","71.1","97.4","29.85","166","0.4","3.6","0.00","0.00"
"04:24:59","71.9","71.1","97.5","29.85","167","0.2","3.5","0.00","0.00"
"04:29:58","71.9","71.3","98","29.85","167","0","0","0.00","0.00"
"04:34:58","71.9","71.3","97.8","29.85","167","0","0","0.00","0.00"
"04:39:57","71.9","71.3","98","29.85","167","0.3","2.4","0.00","0.00"
"04:44:56","72","71.2","97.3","29.86","167","1","2.4","0.00","0.00"
"04:49:58","72","71.1","97","29.86","167","0.1","1.2","0.00","0.00"
"04:54:57","72","71.1","97","29.86","164","0.4","3.6","0.00","0.00"
"04:59:59","72","71.1","97","29.86","163","1","3.6","0.00","0.00"
"05:04:58","72","71.1","97","29.85","163","0.7","2.4","0.00","0.00"
"05:09:56","72","71.1","97","29.85","158","1.3","4.8","0.00","0.00"
"05:14:59","72.1","71.2","97","29.85","149","1.1","4.6","0.00","0.00"
"05:19:58","72.1","71.2","97","29.85","149","0.9","3.6","0.00","0.00"
"05:24:56","72.1","71.2","97","29.85","149","1.1","3.5","0.00","0.00"
"05:29:59","72.1","71.2","97","29.86","149","0.8","2.4","0.00","0.00"
"05:34:57","72.1","71.2","97","29.86","149","0.4","2.4","0.00","0.00"
"05:39:56","72.1","71.2","97","29.86","149","1.2","2.4","0.00","0.00"
"05:44:58","72.2","71.3","97","29.86","146","1.5","3.6","0.00","0.00"
"05:49:57","72.1","71.2","97","29.86","139","1","2.4","0.00","0.00"
"05:54:56","72.2","71.3","97","29.86","139","0","0","0.00","0.00"
"05:59:59","72.2","71.3","97","29.86","139","0","0","0.00","0.00"
"06:04:58","72.2","71.3","97","29.86","139","0","0","0.00","0.00"
"06:09:57","72.2","71.3","97","29.86","128","0","0","0.00","0.00"
"06:14:57","72.2","71.3","97","29.86","129","0","0","0.00","0.00"
"06:19:57","72.3","71.4","97","29.86","123","0.4","2.4","0.00","0.00"
"06:24:59","72.2","71.3","97","29.86","139","2.1","4.8","0.00","0.00"
"06:29:58","72.3","71.4","97","29.87","154","1","2.4","0.00","0.00"
"06:34:57","72.3","71.4","97","29.87","153","1.3","2.4","0.00","0.00"
"06:39:56","72.3","71.4","97","29.87","162","1.6","6","0.00","0.00"
"06:44:58","72.4","71.5","97","29.87","165","1.1","3.6","0.00","0.00"
"06:49:57","72.4","71.5","97","29.87","169","1.8","4.8","0.00","0.00"
"06:54:56","72.4","71.5","97","29.87","179","1.6","4.8","0.00","0.00"
"06:59:59","72.4","71.5","97","29.88","163","2","4.8","0.00","0.00"
"07:04:58","72.3","71.4","97","29.88","138","2.2","4.8","0.00","0.00"
"07:09:56","72.3","71.4","97","29.88","142","2","4.6","0.00","0.00"
"07:14:59","72.3","71.4","97","29.88","142","1.2","3.6","0.00","0.00"
"07:19:58","72.3","71.4","97","29.88","142","0.6","2.4","0.00","0.00"
"07:24:56","72.4","71.5","97","29.88","142","0.8","3.6","0.00","0.00"
"07:29:59","72.4","71.5","97","29.88","142","1.1","3.6","0.00","0.00"
"07:34:57","72.4","71.5","97","29.88","142","0.6","2.4","0.00","0.00"
"07:39:57","72.5","71.6","97","29.88","142","0","1.2","0.00","0.00"
"07:44:59","72.6","71.7","97","29.88","142","0.8","3.6","0.00","0.00"
"07:49:58","72.7","71.8","97","29.88","142","0.7","3.5","0.00","0.00"
"07:54:56","72.8","71.9","96.7","29.88","140","0.8","3.6","0.00","0.00"
"07:59:59","73","71.8","96","29.88","140","1.2","2.4","0.00","0.00"
"08:04:58","73.1","71.9","96","29.88","140","1.2","3.6","0.00","0.00"
"08:09:56","73.3","72.1","96","29.88","159","3.2","6","0.00","0.00"
"08:14:59","73.5","72","95","29.88","166","1.9","3.6","0.00","0.00"
"08:19:58","73.7","72.2","95","29.88","165","0.9","3.6","0.00","0.00"
"08:24:59","74","72.5","94.9","29.88","166","0.7","3.5","0.00","0.00"
"08:29:57","74.3","72.5","94","29.88","166","0.7","3.6","0.00","0.00"
"08:34:59","74.5","72.7","93.9","29.88","166","1.7","4.8","0.00","0.00"
"08:39:58","74.8","72.9","93.7","29.88","162","1.1","3.5","0.00","0.00"
"08:44:57","75","72.8","93","29.88","347","0.1","2.3","0.00","0.00"
"08:49:59","75.1","72.8","92.7","29.88","281","0","0","0.00","0.00"
"08:54:57","75.4","72.9","92","29.88","209","0","0","0.00","0.00"
"08:59:59","75.9","73.2","91.4","29.89","188","0.7","3.6","0.00","0.00"
"09:04:58","76.2","73.2","90.6","29.89","189","0.6","3.6","0.00","0.00"
"09:09:57","76.1","73","90","29.89","189","0.8","3.6","0.00","0.00"
"09:14:59","75.9","72.9","90.2","29.89","189","0.7","3.6","0.00","0.00"
"09:19:57","76","73.1","90.7","29.89","188","1.7","4.8","0.00","0.00"
"09:24:57","76.2","73","89.8","29.89","189","0.5","3.5","0.00","0.00"
"09:29:59","76.3","73.1","90","29.89","187","1","3.6","0.00","0.00"
"09:34:57","76.6","73.4","90","29.89","187","1.5","3.6","0.00","0.00"
"09:39:56","76.9","73.4","88.9","29.89","187","1.1","2.4","0.00","0.00"
"09:44:58","77.4","73.6","88.2","29.89","187","0.5","2.4","0.00","0.00"
"09:49:56","77.8","73.8","87.5","29.88","187","0.3","1.2","0.00","0.00"
"09:54:58","78.1","74.1","87.5","29.88","178","0.5","2.4","0.00","0.00"
"09:59:56","78.2","73.8","86.3","29.88","177","0.5","3.6","0.00","0.00"
"10:04:59","78.5","74.3","87","29.88","177","0.6","2.4","0.00","0.00"
"10:09:59","78.7","74","85.5","29.88","219","2.2","3.6","0.00","0.00"
"10:14:57","78.8","74.1","85.4","29.88","272","2.1","4.8","0.00","0.00"
"10:19:57","79.4","74.5","85.1","29.88","343","2.2","7.2","0.00","0.00"
"10:24:56","79.9","74.5","83.8","29.88","360","0.9","2.4","0.00","0.00"
"10:29:59","80.3","74.8","83.5","29.88","325","1.2","3.6","0.00","0.00"
"10:34:56","80.6","75.1","83.3","29.88","318","0","2.3","0.00","0.00"
"10:39:58","81.1","75.7","83.7","29.88","318","0.1","1.2","0.00","0.00"
"10:44:58","81.4","75.4","81.9","29.88","318","0","1.2","0.00","0.00"
"10:49:58","81.6","75.8","82.4","29.88","315","0.2","2.4","0.00","0.00"
"10:54:56","81.8","75.5","81.1","29.88","315","0.1","1.2","0.00","0.00"
"10:59:58","81.9","75.4","80.8","29.89","315","0","0","0.00","0.00"
"11:04:59","81.9","75.4","80.7","29.89","315","0","0","0.00","0.00"
"11:09:58","82","75.5","80.6","29.89","313","1","4.8","0.00","0.00"
"11:14:59","82.1","75.8","81.2","29.89","318","0.7","3.5","0.00","0.00"
"11:19:59","82.2","76","81.6","29.89","317","0.5","2.4","0.00","0.00"
"11:24:59","82.3","75.7","80.6","29.89","317","0.5","2.3","0.00","0.00"
"11:29:59","82.3","76","81.2","29.89","317","0","0","0.00","0.00"
"11:34:59","82.3","76.2","81.7","29.89","296","0","0","0.00","0.00"
"11:39:56","82.4","76.2","81.7","29.89","296","0","0","0.00","0.00"
"11:44:56","82.5","76.3","81.7","29.89","287","0.1","3.6","0.00","0.00"
"11:49:56","82.5","76.2","81.2","29.88","266","1.8","4.8","0.00","0.00"
"11:54:56","82.4","76.3","81.8","29.88","145","1.4","3.5","0.00","0.00"
"11:59:56","82.5","76.4","81.8","29.88","134","0.9","4.8","0.00","0.00"
"12:04:56","82.6","76.2","81","29.88","133","1.3","4.6","0.00","0.00"
"12:09:56","82.7","76.4","81.5","29.88","133","0.9","3.6","0.00","0.00"
"12:14:57","83.1","76.6","80.8","29.88","134","0.6","3.6","0.00","0.00"
"12:19:57","83.2","76.4","80.2","29.88","137","1.7","4.8","0.00","0.00"
"12:24:56","83.2","76.4","80","29.88","140","0.5","4.8","0.00","0.00"
"12:29:56","83.3","76.3","79.4","29.88","159","1.6","6","0.00","0.00"
"12:34:56","83.3","76.3","79.6","29.88","242","1.8","5.8","0.00","0.00"
"12:39:57","83.4","76.8","80.5","29.88","231","1.8","4.8","0.00","0.00"
"12:44:57","84","77","79.5","29.88","229","1.3","4.6","0.00","0.00"
"12:49:57","85.2","78","79.2","29.88","200","2.1","4.8","0.00","0.00"
"12:54:57","84.8","77.1","77.7","29.88","186","2.6","4.8","0.00","0.00"
"12:59:57","85.1","77.5","78","29.88","150","1.5","3.6","0.00","0.00"
"13:04:57","85.5","77.4","76.7","29.87","203","1.3","6","0.00","0.00"
"13:09:57","86.1","77.9","76.8","29.87","189","2.1","6","0.00","0.00"
"13:14:58","86.9","78","75","29.87","180","2.8","6","0.00","0.00"
"13:19:58","86.8","78.3","76","29.87","180","1.6","4.8","0.00","0.00"
"13:24:58","87.4","78.1","73.8","29.87","151","1.1","4.6","0.00","0.00"
"13:29:58","87.2","77.9","74","29.87","177","2.3","6","0.00","0.00"
"13:34:58","87.2","77.6","73.4","29.86","162","2.2","5.8","0.00","0.00"
"13:39:58","87.1","77.4","72.9","29.86","169","2.3","7.2","0.00","0.00"
"13:44:57","86.8","77.4","73.9","29.86","148","1.6","5.8","0.00","0.00"
"13:49:58","86.4","77.3","74.4","29.86","168","2.7","4.8","0.00","0.00"
"13:54:57","86","76.9","74.4","29.86","170","1.7","4.6","0.00","0.00"
"13:59:58","85.7","76.8","74.8","29.86","160","0.2","4.8","0.00","0.00"
"14:04:58","85.4","76.4","74.5","29.86","155","1.5","4.6","0.00","0.00"
"14:09:58","85.4","76.9","75.7","29.86","156","1.2","4.8","0.00","0.00"
"14:14:58","85.5","76.8","75.3","29.86","165","1.1","3.6","0.00","0.00"
"14:19:58","85.8","77.1","75.3","29.86","167","0.7","4.8","0.00","0.00"
"14:24:57","86","76.9","74.5","29.86","181","1.7","4.8","0.00","0.00"
"14:29:57","86.5","76.9","73.3","29.86","181","0.5","2.4","0.00","0.00"
"14:34:57","87.2","77.3","72.6","29.85","181","1.8","3.6","0.00","0.00"
"14:39:58","87.2","76.8","71.4","29.85","182","1.4","6","0.00","0.00"
"14:44:58","87","76.8","71.8","29.85","182","0.6","3.6","0.00","0.00"
"14:49:57","87.4","77.5","72.4","29.85","181","1","3.6","0.00","0.00"
"14:54:57","87.8","77.8","72.3","29.85","179","0.9","3.6","0.00","0.00"
"14:59:58","87.8","77.2","71","29.85","179","1.6","3.6","0.00","0.00"
"15:04:58","87.9","77.4","71.1","29.84","168","0.9","4.8","0.00","0.00"
"15:09:58","88.2","77.9","71.6","29.84","150","2.1","4.8","0.00","0.00"
"15:14:58","88.6","77.8","70.6","29.84","176","3","7.2","0.00","0.00"
"15:19:58","88.6","77.9","70.9","29.84","190","2.9","6","0.00","0.00"
"15:24:58","88.7","78.1","71","29.84","187","2.3","6","0.00","0.00"
"15:29:58","89.5","78.6","70.4","29.84","191","2.1","4.8","0.00","0.00"
"15:34:57","89.8","77.9","68.3","29.84","211","3.5","7.2","0.00","0.00"
"15:39:58","90","78.4","68.8","29.84","206","3.4","7.2","0.00","0.00"
"15:44:57","90","77.7","67.1","29.84","178","2.9","6","0.00","0.00"
"15:49:57","90.9","77.3","64.6","29.84","197","2.8","6","0.00","0.00"
"15:54:57","91.2","76.1","61.4","29.84","224","2.9","6","0.00","0.00"
"15:59:57","91.4","75.5","59.8","29.84","218","2.6","6","0.00","0.00"
"16:04:57","91.8","76.8","61.9","29.82","219","2.9","7.2","0.00","0.00"
"16:09:56","92.2","77.3","62","29.82","186","4.6","10.8","0.00","0.00"
"16:14:56","92.6","77.1","60.9","29.82","228","4","9.6","0.00","0.00"
"16:19:56","92.2","76.5","60.4","29.81","197","2.3","10.8","0.00","0.00"
"16:24:56","91.2","75.1","59.3","29.81","197","4.6","10.4","0.00","0.00"
"16:29:56","90.3","75.2","61.3","29.81","237","3.3","8.1","0.00","0.00"
"16:34:59","89.7","75.3","62.9","29.81","213","3.4","7.2","0.00","0.00"
"16:39:59","89.4","75.5","63.8","29.81","172","1.7","5.8","0.00","0.00"
"16:44:59","89.4","75.8","64.3","29.81","172","1.8","4.8","0.00","0.00"
"16:49:59","89.4","76.3","65.3","29.81","190","3.6","7.2","0.00","0.00"
"16:54:58","89.4","76.2","65.3","29.81","201","4.1","8.4","0.00","0.00"
"16:59:58","89.8","77.1","66.3","29.81","179","3.8","9.6","0.00","0.00"
"17:04:58","90.9","77.9","65.9","29.81","184","4.4","10.8","0.00","0.00"
"17:09:58","91.3","78","65.3","29.81","190","4.4","13.2","0.00","0.00"
"17:14:58","90.7","77.4","65.2","29.81","173","4.4","10.8","0.00","0.00"
"17:19:58","90.9","78.5","67.3","29.81","197","3.6","8.4","0.00","0.00"
"17:24:57","91.5","78.5","65.8","29.81","187","4","10.8","0.00","0.00"
"17:29:57","91.8","78.4","65.1","29.81","167","3.8","9.2","0.00","0.00"
"17:34:57","92.1","78","63.6","29.80","208","4.2","7.2","0.00","0.00"
"17:39:58","92.3","77.3","61.8","29.80","188","4.7","9.6","0.00","0.00"
"17:44:57","91.8","76.3","60.9","29.80","207","4.4","8.4","0.00","0.00"
"17:49:57","91.1","75.9","61.3","29.79","189","4.6","10.8","0.00","0.00"
"17:54:56","91","76.1","61.7","29.79","188","3.6","10.4","0.00","0.00"
"17:59:56","91.2","75.3","59.8","29.79","190","6","12","0.00","0.00"
"18:04:56","91","74.8","59.2","29.79","198","5.4","9.2","0.00","0.00"
"18:09:56","90.6","74.1","58.7","29.79","211","5.2","12","0.00","0.00"
"18:14:56","90","73.6","58.7","29.79","234","5.1","13.2","0.00","0.00"
"18:19:56","89.6","73.2","58.6","29.78","231","3.5","9.2","0.00","0.00"
"18:24:56","89.5","73.4","59.2","29.78","210","3.9","10.8","0.00","0.00"
"18:29:56","89.3","73.3","59.5","29.78","202","5","15.6","0.00","0.00"
"18:34:59","89.1","73","59.2","29.78","195","4.2","8.4","0.00","0.00"
"18:39:56","89.2","73.5","60.1","29.78","203","4.2","10.8","0.00","0.00"
"18:44:59","89.5","73.6","59.7","29.78","198","4.3","10.4","0.00","0.00"
"18:49:59","89.9","74.1","60","29.78","196","3.4","8.4","0.00","0.00"
"18:54:59","90.1","74.4","60.3","29.78","188","3.4","10.8","0.00","0.00"
"18:59:59","89.9","74.5","60.7","29.78","201","3.9","12","0.00","0.00"
"19:04:59","89.5","74.6","61.5","29.78","199","3.8","11.5","0.00","0.00"
"19:09:59","89.1","74.3","61.8","29.78","211","5.2","9.6","0.00","0.00"
"19:14:59","88.7","74.4","62.8","29.78","223","4.5","9.6","0.00","0.00"
"19:19:59","88.6","74.6","63.4","29.78","189","3.7","8.4","0.00","0.00"
"19:24:59","88.4","74.9","64.4","29.78","197","2.8","13.2","0.00","0.00"
"19:29:59","88","74.9","65.2","29.78","211","4","12","0.00","0.00"
"19:34:58","87.6","74.7","65.8","29.78","209","3.4","8.4","0.00","0.00"
"19:39:59","87.4","74.8","66.5","29.78","196","3.5","9.6","0.00","0.00"
"19:44:59","87.2","75","67.3","29.78","199","2.5","6","0.00","0.00"
"19:49:59","86.9","75.1","68","29.78","216","3.1","8.4","0.00","0.00"
"19:54:58","86.8","75.1","68.3","29.78","221","2.3","4.8","0.00","0.00"
"19:59:58","86.6","75.2","68.9","29.78","207","3.3","8.4","0.00","0.00"
"20:04:58","86.5","75.2","69.2","29.78","182","3","7.2","0.00","0.00"
"20:09:58","86.3","75.2","69.7","29.78","190","3.7","7.2","0.00","0.00"
"20:14:58","86.1","75.2","70","29.78","214","2.6","6","0.00","0.00"
"20:19:59","86","75.3","70.5","29.78","210","2.5","6","0.00","0.00"
"20:24:59","85.8","75.3","71","29.78","211","2","4.8","0.00","0.00"
"20:29:59","85.5","75.2","71.6","29.79","211","1.8","3.6","0.00","0.00"
"20:34:59","85.3","75.2","72","29.79","211","1.4","3.6","0.00","0.00"
"20:39:56","85.1","75.2","72.2","29.79","211","1.5","3.6","0.00","0.00"
"20:44:57","84.9","75.3","73","29.79","211","1.6","4.8","0.00","0.00"
"20:49:58","84.6","75.2","73.3","29.79","211","0.8","3.6","0.00","0.00"
"20:54:59","84.4","75.2","74","29.79","211","0.9","2.4","0.00","0.00"
"20:59:59","84.2","75","74","29.79","211","1.7","3.6","0.00","0.00"
"21:04:56","84","75.2","74.9","29.79","211","0.7","2.4","0.00","0.00"
"21:09:55","83.8","75","75","29.79","211","0.8","2.4","0.00","0.00"
"21:14:56","83.5","74.8","75.2","29.80","211","0","1.2","0.00","0.00"
"21:19:57","83.3","74.9","76","29.80","211","0.1","1.2","0.00","0.00"
"21:24:57","83","74.6","76","29.80","211","0.1","1.2","0.00","0.00"
"21:29:57","82.7","74.7","76.8","29.81","212","0","1.2","0.00","0.00"
"21:34:57","82.4","74.6","77.3","29.81","212","0","1.2","0.00","0.00"
"21:39:58","82.1","74.6","78","29.81","211","0","1.2","0.00","0.00"
"21:44:58","81.8","74.5","78.6","29.81","211","0","1.2","0.00","0.00"
"21:49:56","81.4","74.3","79","29.81","211","0","0","0.00","0.00"
"21:54:56","81","74.2","80","29.81","211","0","0","0.00","0.00"
"21:59:56","80.6","74.1","80.8","29.81","211","0","0","0.00","0.00"
"22:04:57","80.1","74","81.6","29.81","211","0","0","0.00","0.00"
"22:09:57","79.8","73.8","82","29.81","211","0.1","1.2","0.00","0.00"
"22:14:57","79.6","73.6","82","29.81","211","0.2","2.4","0.00","0.00"
"22:19:58","79.6","73.6","82","29.81","211","0.1","1.2","0.00","0.00"
"22:24:58","79.6","73.6","82","29.81","211","0.1","1.2","0.00","0.00"
"22:29:58","79.6","73.6","82","29.82","211","0.5","2.4","0.00","0.00"
"22:34:58","79.6","73.4","81.5","29.82","211","0.7","2.4","0.00","0.00"
"22:39:59","79.6","73.3","81","29.82","211","1.6","3.6","0.00","0.00"
"22:44:59","79.8","73.4","81","29.82","209","2","4.8","0.00","0.00"
"22:49:59","79.9","73.5","81","29.82","209","0.8","3.5","0.00","0.00"
"22:54:58","80","73.6","81","29.82","210","1.8","4.8","0.00","0.00"
"22:59:59","80.2","73.8","81","29.82","204","1.5","4.8","0.00","0.00"
"23:04:56","80.3","73.9","81","29.82","197","1.8","3.6","0.00","0.00"
"23:09:56","80.3","73.9","81","29.82","197","0.9","3.6","0.00","0.00"
"23:14:57","80.3","73.9","81","29.83","197","0.5","2.4","0.00","0.00"
"23:19:57","80.2","73.8","81","29.83","197","1","3.6","0.00","0.00"
"23:24:57","80","73.8","81.6","29.83","216","0.5","4.8","0.00","0.00"
"23:29:58","79.8","73.8","82","29.84","229","0.2","2.4","0.00","0.00"
"23:34:56","79.6","73.6","82","29.84","229","0.3","2.4","0.00","0.00"
"23:39:57","79.4","73.6","82.5","29.84","228","0.6","3.6","0.00","0.00"
"23:44:57","79.3","73.7","83","29.84","229","0.1","1.2","0.00","0.00"
"23:49:57","79.1","73.5","83","29.84","229","0.1","1.2","0.00","0.00"
